{"data":{"norad_id":57971,"intl_designator":"2023-151H","name":"STARLINK-30498","alt_names":[],"object_type":"PAYLOAD","status":"ACTIVE","operator":null,"country":"US","launch_date":"2023-09-30","launch_site_code":"AFETR","launch_vehicle":null,"mission":null,"orbit_class":"UNKNOWN","rcs_meters":null,"size_class":null,"mass_kg":null,"dimensions":null,"purposes":["comms"],"wikipedia_slug":null,"has_3d_model":false,"image_url":null,"decayed_at":null,"tle_current":{"epoch":"2026-05-25T00:58:01.120800Z","epoch_age_seconds":67524,"freshness":"FRESH","line1":"1 57971U 23151H   26145.04029075  .00005651  00000+0  21461-3 0  9999","line2":"2 57971  43.0023 264.7715 0001843 264.3098  95.7544 15.27595411147447","mean_motion":15.27595411,"eccentricity":0.0001843,"inclination_deg":43.0023,"raan_deg":264.7715,"arg_perigee_deg":264.3098,"mean_anomaly_deg":95.7544,"bstar":0.00021461,"rev_number":14744,"period_min":94.265797712586,"perigee_km":481.73844225668,"apogee_km":484.26745844237,"semimajor_km":6861.1399503495,"source":"CELESTRAK","updated_at":"2026-05-25T13:38:18.485051Z"}}}